Weather History for KPRO - November, 2010

Change the Weather History Date:

Monday, November 29, 2010

  Actual Average Record
Temperature  
Mean Temperature 44 °F -  
Max Temperature 55 °F 36 °F 59 °F (1962)
Min Temperature 32 °F 19 °F -2 °F (1976)
Degree Days  
Heating Degree Days 22    
Moisture  
Dew Point 36 °F    
Average Humidity 71    
Maximum Humidity 100    
Minimum Humidity 57    
Precipitation  
Precipitation 0.05 in - - ()
Sea Level Pressure  
Sea Level Pressure 29.59 in    
Wind  
Wind Speed 16 mph (SSE)    
Max Wind Speed 28 mph    
Max Gust Speed 37 mph    
Averages and records for this station are not official NWS values.
T = Trace of Precipitation, MM = Missing Value Source: NWS Daily Summary

Daily Weather History Graph

Daily Weather History Graph

Search for Another Location

Airport or City:

Trip Planner

Search our weather history database for the weather conditions in past years. The results will help you decide how hot, cold, wet, or windy it might be!

Date:

Astronomy

Nov. 29, 2010 Rise Set
Actual Time 7:22 AM CST 4:47 PM CST
Civil Twilight 6:51 AM CST 5:18 PM CST
Nautical Twilight 6:17 AM CST 5:52 PM CST
Astronomical Twilight 5:43 AM CST 6:26 PM CST
Moon 12:24 AM CST (11/29) 12:53 PM CST (11/29)
Length of Visible Light 10h 26m
Length of Day
9h 24m
Last Quarter, 40% of the Moon is Illuminated
Nov 29
Last Quarter
Dec 5
New
Dec 13
First Quarter
Dec 21
Full
Dec 27
Last Quarter

Hourly Weather History & Observations

Time (CST) Temp. Windchill Dew Point Humidity Pressure Visibility Wind Dir Wind Speed Gust Speed Precip Events Conditions
12:15 AM 46.4 °F 40.1 °F 32.0 °F 57% 29.68 in - SE 15.0 mph - N/A   Overcast
12:35 AM 46.4 °F 40.1 °F 32.0 °F 57% 29.67 in - SE 15.0 mph - N/A   Overcast
12:55 AM 46.4 °F 39.8 °F 32.0 °F 57% 29.67 in - SE 16.1 mph - N/A   Overcast
1:15 AM 46.4 °F 40.1 °F 32.0 °F 57% 29.66 in - SE 15.0 mph 20.7 mph N/A   Overcast
1:55 AM 46.4 °F 39.8 °F 32.0 °F 57% 29.65 in - SE 16.1 mph - N/A   Overcast
2:15 AM 46.4 °F 39.8 °F 32.0 °F 57% 29.65 in - SE 16.1 mph - N/A   Overcast
2:35 AM 46.4 °F 39.5 °F 32.0 °F 57% 29.64 in - SE 17.3 mph 21.9 mph N/A   Overcast
2:55 AM 46.4 °F 40.1 °F 32.0 °F 57% 29.64 in - SE 15.0 mph - N/A   Scattered Clouds
3:15 AM 44.6 °F 37.4 °F 32.0 °F 61% 29.63 in - SE 16.1 mph - N/A   Clear
3:35 AM 44.6 °F 37.2 °F 32.0 °F 61% 29.62 in - SE 17.3 mph - N/A   Clear
3:55 AM 44.6 °F 37.4 °F 32.0 °F 61% 29.62 in - SE 16.1 mph - N/A   Clear
4:15 AM 44.6 °F 38.1 °F 32.0 °F 61% 29.62 in - SE 13.8 mph - N/A   Clear
4:35 AM 44.6 °F 37.8 °F 33.8 °F 66% 29.62 in - SE 15.0 mph - N/A   Mostly Cloudy
4:55 AM 46.4 °F 40.1 °F 33.8 °F 62% 29.61 in - SE 15.0 mph 19.6 mph N/A   Overcast
5:15 AM 44.6 °F 37.4 °F 33.8 °F 66% 29.60 in - SE 16.1 mph 21.9 mph N/A   Mostly Cloudy
5:35 AM 46.4 °F 40.1 °F 33.8 °F 62% 29.61 in - SE 15.0 mph - N/A   Mostly Cloudy
5:55 AM 46.4 °F 40.7 °F 33.8 °F 62% 29.61 in - SE 12.7 mph - N/A   Overcast
6:16 AM 46.4 °F 40.4 °F 33.8 °F 62% 29.61 in - SE 13.8 mph - N/A   Overcast
6:35 AM 46.4 °F 40.1 °F 33.8 °F 62% 29.61 in - SE 15.0 mph 20.7 mph N/A   Overcast
6:55 AM 46.4 °F 40.7 °F 35.6 °F 66% 29.61 in - SE 12.7 mph - N/A   Overcast
7:15 AM 46.4 °F 39.8 °F 35.6 °F 66% 29.60 in - SE 16.1 mph - N/A   Scattered Clouds
7:35 AM 46.4 °F 40.1 °F 35.6 °F 66% 29.60 in - SE 15.0 mph - N/A   Mostly Cloudy
7:55 AM 46.4 °F 39.8 °F 35.6 °F 66% 29.60 in - SE 16.1 mph - N/A   Overcast
8:15 AM 48.2 °F - 35.6 °F 62% 29.61 in - SE 13.8 mph 21.9 mph N/A   Overcast
8:35 AM 48.2 °F - 37.4 °F 66% 29.60 in - SE 15.0 mph - N/A   Overcast
8:55 AM 50.0 °F - 37.4 °F 62% 29.61 in - SSE 15.0 mph - N/A   Overcast
9:15 AM 50.0 °F - 37.4 °F 62% 29.60 in - SSE 13.8 mph - N/A   Overcast
9:35 AM 50.0 °F - 37.4 °F 62% 29.59 in - SE 11.5 mph - N/A   Overcast
9:55 AM 50.0 °F - 39.2 °F 66% 29.59 in - SE 10.4 mph - N/A   Overcast
10:15 AM 50.0 °F - 39.2 °F 66% 29.59 in - SE 13.8 mph - N/A   Overcast
10:35 AM 51.8 °F - 41.0 °F 67% 29.59 in - SE 15.0 mph 19.6 mph N/A   Overcast
10:55 AM 51.8 °F - 41.0 °F 67% 29.57 in - SE 17.3 mph - N/A   Overcast
11:16 AM 51.8 °F - 41.0 °F 67% 29.57 in - SSE 13.8 mph - N/A   Overcast
11:35 AM 51.8 °F - 42.8 °F 71% 29.55 in - SSE 17.3 mph - N/A   Overcast
11:55 AM 51.8 °F - 42.8 °F 71% 29.55 in - SSE 16.1 mph - N/A   Overcast
12:15 PM 51.8 °F - 42.8 °F 71% 29.54 in - SSE 15.0 mph 21.9 mph N/A   Overcast
12:35 PM 53.6 °F - 44.6 °F 72% 29.52 in - SSE 18.4 mph - N/A   Overcast
12:55 PM 53.6 °F - 44.6 °F 72% 29.51 in - SE 21.9 mph 25.3 mph N/A   Mostly Cloudy
1:16 PM 55.4 °F - 44.6 °F 67% 29.51 in - SSE 19.6 mph 26.5 mph N/A   Mostly Cloudy
1:35 PM 53.6 °F - 44.6 °F 72% 29.51 in - SSE 17.3 mph 23.0 mph N/A   Mostly Cloudy
1:55 PM 53.6 °F - 44.6 °F 72% 29.49 in - SE 13.8 mph 23.0 mph N/A   Overcast
2:15 PM 53.6 °F - 44.6 °F 72% 29.48 in - SE 16.1 mph - N/A   Overcast
2:55 PM 55.4 °F - 44.6 °F 67% 29.47 in - SSE 18.4 mph - N/A   Scattered Clouds
3:35 PM 50.0 °F - 42.8 °F 76% 29.51 in - WSW 11.5 mph 21.9 mph N/A   Overcast
3:55 PM 48.2 °F - 44.6 °F 87% 29.50 in - Calm Calm - 0.02 in   Unknown
4:15 PM 46.4 °F - 44.6 °F 93% 29.50 in - Calm Calm - N/A   Unknown
4:35 PM 48.2 °F - 44.6 °F 87% 29.51 in - West 8.1 mph - N/A   Unknown
4:55 PM 37.4 °F 25.6 °F 35.6 °F 93% 29.55 in - West 26.5 mph 34.5 mph 0.03 in   Overcast
5:15 PM 35.6 °F 23.0 °F 32.0 °F 87% 29.57 in - WNW 27.6 mph 36.8 mph N/A   Overcast
5:35 PM 33.8 °F 21.3 °F 32.0 °F 93% 29.59 in - WNW 24.2 mph 33.4 mph N/A   Overcast
5:55 PM 33.8 °F 22.5 °F 32.0 °F 93% 29.60 in - WNW 19.6 mph - N/A   Unknown
6:15 PM 33.8 °F 22.5 °F 32.0 °F 93% 29.60 in - WNW 19.6 mph 32.2 mph N/A   Overcast
6:55 PM 33.8 °F 22.5 °F 32.0 °F 93% 29.62 in - WNW 19.6 mph 25.3 mph N/A   Overcast
7:35 PM 32.0 °F 20.5 °F 32.0 °F 100% 29.64 in - WNW 18.4 mph 27.6 mph N/A   Overcast
7:55 PM 32.0 °F 19.5 °F 32.0 °F 100% 29.64 in - WNW 21.9 mph 27.6 mph N/A   Overcast
8:15 PM 32.0 °F 20.8 °F 30.2 °F 93% 29.65 in - WNW 17.3 mph 27.6 mph N/A   Overcast
8:35 PM 32.0 °F 20.5 °F 30.2 °F 93% 29.65 in - WNW 18.4 mph 32.2 mph N/A   Overcast
8:55 PM 32.0 °F 20.8 °F 30.2 °F 93% 29.66 in - WNW 17.3 mph 27.6 mph N/A   Overcast
9:15 PM 32.0 °F 20.1 °F 28.4 °F 87% 29.66 in - WNW 19.6 mph 31.1 mph N/A   Overcast
9:35 PM 32.0 °F 20.8 °F 28.4 °F 87% 29.68 in - WNW 17.3 mph 28.8 mph N/A   Overcast
9:55 PM 32.0 °F 20.8 °F 28.4 °F 87% 29.69 in - NW 17.3 mph 25.3 mph N/A   Overcast
10:15 PM 30.2 °F 19.3 °F 26.6 °F 86% 29.70 in - WNW 15.0 mph 24.2 mph N/A   Overcast
10:35 PM 30.2 °F 18.9 °F 26.6 °F 86% 29.70 in - WNW 16.1 mph 23.0 mph N/A   Overcast
10:55 PM 30.2 °F 18.1 °F 26.6 °F 86% 29.70 in - WNW 18.4 mph 24.2 mph N/A   Overcast
11:15 PM 30.2 °F 18.5 °F 26.6 °F 86% 29.70 in - WNW 17.3 mph 26.5 mph N/A   Overcast
11:35 PM 30.2 °F 17.4 °F 24.8 °F 80% 29.70 in - WNW 20.7 mph 27.6 mph N/A   Overcast
11:55 PM 30.2 °F 17.4 °F 24.8 °F 80% 29.71 in - WNW 20.7 mph 26.5 mph N/A   Overcast